Location: Les Chemineaux
(47.3024°N, 1.5104°E)
Time: 21:05:17
(UTC+00:00)

Cosmos 1842 - Pass Details

Date: 19 May 2025
Orbit: 439 x 450 km, 82.5° (Epoch: 21 June)

Event Time Altitude Azimuth Distance (km) Brightness Sun altitude
Exits shadow 23:39:43 51° 307° (NW) 582 3.6 -22.7°
Drops below altitude 10° 23:42:48 10° 0° (N) 1,599 6.8 -22.7°
Sets 23:44:55 0° 6° (N) 2,478 8.1 -22.7°
